| time (UTC) | temp C | wind direction | speed KPH | gust KPH | rain 1hr cm | rain 24hr cm | rain mn cm | humidity % | barometer mb |
| 20260504110606 | 11 | 276 | 0.0 | 0.0 | 0.00 | 0.00 | 0.00 | 94 | 1012.8 |
| 20260504082003 | 9 | 276 | 0.0 | 0.0 | 0.00 | 0.00 | 0.00 | 95 | 1012.8 |
| 20260504080502 | 8 | 276 | 0.0 | 0.0 | 0.00 | 0.00 | 0.00 | 95 | 1012.8 |
| 20260504080344 | 8 | 276 | 0.0 | 0.0 | 0.00 | 0.00 | 0.00 | 95 | 1012.8 |
| 20260504044900 | 11 | 276 | 0.0 | 0.0 | 0.00 | 0.00 | 0.00 | 89 | 1012.0 |
| 20260504043359 | 11 | 276 | 0.0 | 0.0 | 0.00 | 0.00 | 0.00 | 88 | 1011.8 |
| 20260504041851 | 12 | 276 | 0.0 | 0.0 | 0.00 | 0.00 | 0.00 | 87 | 1011.6 |
| 20260504040352 | 12 | 276 | 1.6 | 3.2 | 0.00 | 0.00 | 0.00 | 86 | 1011.4 |
| 20260504034851 | 12 | 314 | 0.0 | 1.6 | 0.00 | 0.00 | 0.00 | 85 | 1011.0 |
| 20260504033349 | 13 | 272 | 0.0 | 3.2 | 0.00 | 0.00 | 0.00 | 83 | 1010.6 |
| 20260504030341 | 13 | 25 | 1.6 | 11.3 | 0.00 | 0.00 | 0.00 | 80 | 1010.3 |
| 20260504024839 | 15 | 163 | 1.6 | 9.7 | 0.00 | 0.00 | 0.00 | 77 | 1009.7 |
| 20260504024039 | 15 | 269 | 0.0 | 9.7 | 0.00 | 0.00 | 0.00 | 75 | 1009.5 |
| 20260504021836 | 16 | 161 | 1.6 | 11.3 | 0.00 | 0.00 | 0.00 | 73 | 1009.3 |
| 20260504021035 | 17 | 162 | 1.6 | 8.0 | 0.00 | 0.00 | 0.00 | 70 | 1009.2 |
| 20260504014834 | 18 | 293 | 3.2 | 8.0 | 0.00 | 0.00 | 0.00 | 66 | 1009.0 |
| 20260504013331 | 20 | 287 | 1.6 | 6.4 | 0.00 | 0.00 | 0.00 | 63 | 1008.9 |
| 20260504011835 | 20 | 66 | 1.6 | 12.9 | 0.00 | 0.00 | 0.00 | 62 | 1008.9 |
| 20260504004824 | 21 | 304 | 3.2 | 11.3 | 0.00 | 0.00 | 0.00 | 60 | 1008.9 |
| 20260504003322 | 21 | 294 | 3.2 | 9.7 | 0.00 | 0.00 | 0.00 | 58 | 1008.8 |
| 20260504001820 | 22 | 293 | 1.6 | 11.3 | 0.00 | 0.00 | 0.00 | 56 | 1008.4 |
| 20260504001009 | 23 | 293 | 4.8 | 11.3 | 0.00 | 0.00 | 0.00 | 54 | 1008.6 |
| 20260503234817 | 23 | 46 | 1.6 | 6.4 | 0.00 | 0.00 | 0.00 | 53 | 1008.5 |
| 20260503233315 | 24 | 286 | 1.6 | 8.0 | 0.00 | 0.00 | 0.00 | 52 | 1008.5 |
| 20260503231813 | 24 | 258 | 1.6 | 12.9 | 0.00 | 0.00 | 0.00 | 53 | 1008.5 |
| 20260503231021 | 25 | 199 | 1.6 | 12.9 | 0.00 | 0.00 | 0.00 | 54 | 1008.6 |
| 20260503224810 | 24 | 304 | 3.2 | 14.5 | 0.00 | 0.00 | 0.00 | 53 | 1008.7 |
| 20260503223309 | 24 | 79 | 4.8 | 14.5 | 0.00 | 0.00 | 0.00 | 54 | 1009.1 |
| 20260503221807 | 23 | 77 | 4.8 | 20.9 | 0.00 | 0.00 | 0.00 | 56 | 1009.2 |
| 20260503220307 | 23 | 63 | 6.4 | 17.7 | 0.00 | 0.00 | 0.00 | 56 | 1009.3 |
| 20260503214805 | 23 | 149 | 6.4 | 14.5 | 0.00 | 0.00 | 0.00 | 57 | 1009.3 |
| 20260503214006 | 23 | 255 | 4.8 | 16.1 | 0.00 | 0.00 | 0.00 | 56 | 1009.2 |
| 20260503211801 | 23 | 214 | 6.4 | 17.7 | 0.00 | 0.00 | 0.00 | 56 | 1009.2 |
| 20260503210953 | 23 | 335 | 4.8 | 16.1 | 0.00 | 0.00 | 0.00 | 56 | 1009.2 |
| 20260503204757 | 23 | 302 | 3.2 | 9.7 | 0.00 | 0.00 | 0.00 | 55 | 1009.1 |
| 20260503203253 | 24 | 177 | 3.2 | 12.9 | 0.00 | 0.00 | 0.00 | 55 | 1009.1 |
| 20260503201751 | 24 | 41 | 4.8 | 9.7 | 0.00 | 0.00 | 0.00 | 54 | 1009.1 |
| 20260503200250 | 24 | 271 | 3.2 | 9.7 | 0.00 | 0.00 | 0.00 | 55 | 1009.2 |
| 20260503194747 | 24 | 42 | 1.6 | 11.3 | 0.00 | 0.00 | 0.00 | 55 | 1009.3 |
| 20260503193246 | 23 | 169 | 1.6 | 9.7 | 0.00 | 0.00 | 0.00 | 56 | 1009.5 |
| 20260503191743 | 23 | 190 | 3.2 | 14.5 | 0.00 | 0.00 | 0.00 | 57 | 1009.6 |
| 20260503190240 | 24 | 227 | 6.4 | 12.9 | 0.00 | 0.00 | 0.00 | 55 | 1009.7 |
| 20260503184738 | 26 | 262 | 4.8 | 11.3 | 0.00 | 0.00 | 0.00 | 51 | 1009.7 |
| 20260503183236 | 25 | 0 | 1.6 | 3.2 | 0.00 | 0.00 | 0.00 | 54 | 1009.8 |
| 20260503181734 | 23 | 300 | 0.0 | 6.4 | 0.00 | 0.00 | 0.00 | 53 | 1009.9 |
| 20260503180225 | 22 | 343 | 1.6 | 3.2 | 0.00 | 0.00 | 0.00 | 61 | 1010.0 |
| 20260503174724 | 20 | 311 | 0.0 | 0.0 | 0.00 | 0.00 | 0.00 | 72 | 1010.0 |
| 20260503173205 | 18 | 311 | 0.0 | 0.0 | 0.00 | 0.00 | 0.00 | 85 | 1010.1 |
| 20260503171703 | 16 | 333 | 0.0 | 0.0 | 0.00 | 0.00 | 0.00 | 93 | 1010.1 |
| 20260503170203 | 15 | 333 | 0.0 | 0.0 | 0.00 | 0.00 | 0.00 | 95 | 1010.4 |
| 20260503160146 | 11 | 333 | 0.0 | 0.0 | 0.00 | 0.00 | 0.00 | 97 | 1010.8 |
| 20260503150130 | 7 | 333 | 0.0 | 0.0 | 0.00 | 0.00 | 0.00 | 97 | 1011.1 |